World > North America > United States > Virginia

Hourly Union Level, VA Regional Weather

Feedback E-mail the Weather

Quick WX

Union Level, VA Weather Maps

°F °C°F °C
Union Level Weather Map
UTC Time: 7/1/2022, 10:34
Your Time:

Union Level, VA Regional Weather

Expires:202207011100;;488393
ASUS41 KAKQ 011015
RWRAKQ

REGIONAL WEATHER ROUNDUP
NATIONAL WEATHER SERVICE WAKEFIELD VA
600 AM EDT FRI JUL 01 2022

Note: "fair" indicates few or no clouds below 12,000 feet with no
significant weather and/or obstructions to visibility. * = Denotes
station may not report precipitation (e.g., rain,snow,etc.),
thunder or fog.


VAZ048-049-060>072-079>083-011100-
CENTRAL AND SOUTH CENTRAL VIRGINIA
  
CITY           SKY/WX    TMP DP  RH WIND       PRES   REMARKS
RICHMOND       MOCLDY    72  69  90 S6        30.14S                  
CHESTERFIELD*  NOT AVBL                                               
PETERSBURG*    PTCLDY    69  68  96 CALM      30.16S FOG              
HANOVER        PTCLDY    73  70  90 S8        30.14S                  
TAPPAHANNOCK*  NOT AVBL                                               
QUINTON*       PTSUNNY   71  70  95 CALM      30.14S                  
CHARLOTTSVILLE CLEAR     72  69  90 CALM      30.12S                  
GORDONSVILLE*  FAIR      68  67  97 SW3       30.12S                  
ORANGE*        CLEAR     66  66 100 S5        30.13F                  
LOUISA*        PTCLDY    69  67  94 S3        30.13S                  
BUMPASS*       FAIR      70  68  93 SW6       30.13R                  
FARMVILLE*     PTCLDY    69  68  98 CALM      30.14S                  
CREWE*         FAIR      67  64  91 CALM      30.16R                  
FORT PICKETT*  FAIR      69  69 100 SW6       30.16R                  
CHASE CITY*    FAIR      69  69  99 CALM      30.16S                  
CLARKSVILLE*   FAIR     N/A N/A N/A CALM      30.17R                  
SOUTH HILL*    PTCLDY    66  64  93 CALM      30.22S                  
LAWRENCEVILLE*   N/A     68  67  97 CALM      30.17S                  
EMPORIA*       FOG       66  66 100 CALM      30.17S VSB 1/4          
$$


SKY/WX - Weather  TMP - Temperature  DP - Dew Point  RH - Humidity
WIND - Wind Direction/Speed PRES - Barometric Pressure VSB - Visibility
WCI - Wind Chill Index E13G22 Wind - East Wind 13 mph/Gusts of 22 mph

Trending Headlines

Union Level Radar Loop



Union Level Quick Facts


National Two Day Weather Forecast


E-mail the Union Level Weather Forecast

Voice your opinion or tell us about page issues...